,,,PA_Meas_PMT16A,,PR_Meas_QMR101_102,,RH_Meas_QMH101,,SR_Meas_QMS101,,TA_Meas_QMH101,,GenWind,,GenWind,
date,time,status,PA,status,PR,status,RH,status,SR,status,TA,status,DirAvg,status,SpdAvg,
2008-10-27, 00:00:05,VALID,1004.52,VALID,0,VALID,92.8664,VALID,0,VALID,24.6769,VALID,31,VALID,1.70625,
2008-10-27, 00:01:05,VALID,1004.56,VALID,0,VALID,92.8816,VALID,0.100563,VALID,24.6769,VALID,25,VALID,1.06562,
2008-10-27, 00:02:05,VALID,1004.55,VALID,0,VALID,92.8282,VALID,0,VALID,24.6964,VALID,69,VALID,0.894922,
2008-10-27, 00:03:05,VALID,1004.57,VALID,0,VALID,92.8511,VALID,0,VALID,24.6769,VALID,36,VALID,0.909375,
2008-10-27, 00:04:05,VALID,1004.56,VALID,0,VALID,92.9045,VALID,0.100563,VALID,24.6769,VALID,25,VALID,1.30273,
2008-10-27, 00:05:05,VALID,1004.56,VALID,0,VALID,92.874,VALID,0,VALID,24.6964,VALID,34,VALID,0.790625,
2008-10-27, 00:06:05,VALID,1004.55,VALID,0,VALID,92.9198,VALID,0,VALID,24.6964,VALID,60,VALID,0.528125,
2008-10-27, 00:07:05,VALID,1004.55,VALID,0,VALID,92.7901,VALID,0,VALID,24.6769,VALID,14,VALID,2.18633,
2008-10-27, 00:08:05,VALID,1004.59,VALID,0,VALID,92.8435,VALID,0,VALID,24.6964,VALID,98,VALID,0.570313,
2008-10-27, 00:09:05,VALID,1004.6,VALID,0,VALID,92.874,VALID,0,VALID,24.6964,VALID,59,VALID,0.555078,
2008-10-27, 00:10:05,VALID,1004.58,VALID,0,VALID,92.668,VALID,0.100563,VALID,24.6769,VALID,67,VALID,0.821484,
2008-10-27, 00:11:05,VALID,1004.59,VALID,0,VALID,92.6909,VALID,0,VALID,24.6556,VALID,33,VALID,1.69687,
2008-10-27, 00:12:05,VALID,1004.59,VALID,0,VALID,92.729,VALID,0,VALID,24.6769,VALID,82,VALID,0.755859,
2008-10-27, 00:13:05,VALID,1004.59,VALID,0,VALID,92.6985,VALID,0.100563,VALID,24.638,VALID,2,VALID,1.24844,
2008-10-27, 00:14:05,VALID,1004.57,VALID,0,VALID,92.729,VALID,0.100563,VALID,24.6593,VALID,24,VALID,1.18789,
2008-10-27, 00:15:05,VALID,1004.59,VALID,0,VALID,92.7672,VALID,0,VALID,24.638,VALID,84,VALID,0.597656,
2008-10-27, 00:16:05,VALID,1004.55,VALID,0,VALID,92.813,VALID,0,VALID,24.6185,VALID,17,VALID,1.63516,
2008-10-27, 00:17:05,VALID,1004.58,VALID,0,VALID,92.9121,VALID,0,VALID,24.599,VALID,28,VALID,0.746484,
2008-10-27, 00:18:05,VALID,1004.59,VALID,0,VALID,92.8358,VALID,0,VALID,24.5796,VALID,53,VALID,1.56758,
2008-10-27, 00:19:05,VALID,1004.57,VALID,0,VALID,92.7596,VALID,0,VALID,24.6204,VALID,34,VALID,1.13984,
2008-10-27, 00:20:05,VALID,1004.55,VALID,0,VALID,92.6528,VALID,0.100563,VALID,24.599,VALID,69,VALID,0.879297,
2008-10-27, 00:21:05,VALID,1004.54,VALID,0.5,VALID,92.668,VALID,0,VALID,24.6185,VALID,46,VALID,1.06445,
2008-10-27, 00:22:05,VALID,1004.55,VALID,0,VALID,92.6909,VALID,0,VALID,24.6185,VALID,41,VALID,0.515234,
2008-10-27, 00:23:05,VALID,1004.52,VALID,0,VALID,92.729,VALID,0,VALID,24.6185,VALID,93,VALID,0.83125,
2008-10-27, 00:24:05,VALID,1004.5,VALID,0,VALID,92.7519,VALID,0,VALID,24.5796,VALID,71,VALID,0.644141,
2008-10-27, 00:25:05,VALID,1004.51,VALID,0,VALID,92.8587,VALID,0,VALID,24.5814,VALID,39,VALID,0.176563,
2008-10-27, 00:26:05,VALID,1004.46,VALID,0,VALID,92.9045,VALID,0,VALID,24.5833,VALID,67,VALID,0.376563,
2008-10-27, 00:27:05,VALID,1004.48,VALID,0,VALID,92.9732,VALID,0,VALID,24.562,VALID,32,VALID,1.24883,
2008-10-27, 00:28:05,VALID,1004.44,VALID,0,VALID,92.9884,VALID,0,VALID,24.562,VALID,25,VALID,0.773047,
2008-10-27, 00:29:05,VALID,1004.47,VALID,0,VALID,93.0418,VALID,0,VALID,24.5425,VALID,58,VALID,0.650391,
2008-10-27, 00:30:05,VALID,1004.43,VALID,0,VALID,93.08,VALID,0,VALID,24.523,VALID,30,VALID,0.439063,
2008-10-27, 00:31:05,VALID,1004.42,VALID,0,VALID,93.1181,VALID,0,VALID,24.5425,VALID,30,VALID,0.375391,
2008-10-27, 00:32:05,VALID,1004.38,VALID,0,VALID,93.1868,VALID,0,VALID,24.5249,VALID,30,VALID,0.0453125,
2008-10-27, 00:33:05,VALID,1004.37,VALID,0,VALID,93.2249,VALID,0,VALID,24.4822,VALID,30,VALID,0,
2008-10-27, 00:34:05,VALID,1004.35,VALID,0,VALID,93.2325,VALID,0,VALID,24.5035,VALID,32,VALID,0.359766,
2008-10-27, 00:35:05,VALID,1004.34,VALID,0,VALID,93.3012,VALID,0,VALID,24.4646,VALID,39,VALID,0.205859,
2008-10-27, 00:36:05,VALID,1004.31,VALID,0.5,VALID,93.3622,VALID,0,VALID,24.4841,VALID,61,VALID,0.529688,
2008-10-27, 00:37:05,VALID,1004.32,VALID,0,VALID,93.3851,VALID,0,VALID,24.4665,VALID,64,VALID,0,
2008-10-27, 00:38:05,VALID,1004.3,VALID,0,VALID,93.3546,VALID,0,VALID,24.4451,VALID,95,VALID,0.482031,
2008-10-27, 00:39:05,VALID,1004.28,VALID,0,VALID,93.3546,VALID,0.100563,VALID,24.4238,VALID,100,VALID,0.224219,
2008-10-27, 00:40:05,VALID,1004.25,VALID,0,VALID,93.4233,VALID,0,VALID,24.4238,VALID,100,VALID,0.0078125,
2008-10-27, 00:41:05,VALID,1004.24,VALID,0,VALID,93.4309,VALID,0,VALID,24.4238,VALID,95,VALID,0.155078,
2008-10-27, 00:42:05,VALID,1004.24,VALID,0,VALID,93.4309,VALID,0,VALID,24.4238,VALID,95,VALID,0,
2008-10-27, 00:43:05,VALID,1004.25,VALID,0,VALID,93.4614,VALID,0,VALID,24.4043,VALID,95,VALID,0.003125,
2008-10-27, 00:44:05,VALID,1004.24,VALID,0,VALID,93.4996,VALID,0,VALID,24.3849,VALID,95,VALID,0.343359,
2008-10-27, 00:45:05,VALID,1004.22,VALID,0,VALID,93.5835,VALID,0,VALID,24.4043,VALID,97,VALID,0.591406,
2008-10-27, 00:46:05,VALID,1004.21,VALID,0,VALID,93.4996,VALID,0,VALID,24.4062,VALID,101,VALID,0.376563,
2008-10-27, 00:47:05,VALID,1004.17,VALID,0,VALID,93.4156,VALID,0,VALID,24.3654,VALID,101,VALID,0.301562,
2008-10-27, 00:48:05,VALID,1004.19,VALID,0,VALID,93.408,VALID,0,VALID,24.3459,VALID,101,VALID,0.428906,
2008-10-27, 00:49:05,VALID,1004.16,VALID,0,VALID,93.4538,VALID,0.100563,VALID,24.3849,VALID,102,VALID,0.5625,
2008-10-27, 00:50:05,VALID,1004.14,VALID,0,VALID,93.4767,VALID,0.100563,VALID,24.3849,VALID,102,VALID,0.323828,
2008-10-27, 00:51:05,VALID,1004.13,VALID,0,VALID,93.4614,VALID,0,VALID,24.3654,VALID,102,VALID,0,
2008-10-27, 00:52:05,VALID,1004.12,VALID,0,VALID,93.4996,VALID,0,VALID,24.3849,VALID,102,VALID,0,
2008-10-27, 00:53:05,VALID,1004.1,VALID,0,VALID,93.5072,VALID,0,VALID,24.3849,VALID,102,VALID,0,
2008-10-27, 00:54:05,VALID,1004.13,VALID,0,VALID,93.5987,VALID,0,VALID,24.3867,VALID,102,VALID,0,
2008-10-27, 00:55:05,VALID,1004.12,VALID,0,VALID,93.6292,VALID,0,VALID,24.3867,VALID,102,VALID,0,
2008-10-27, 00:56:05,VALID,1004.09,VALID,0,VALID,93.6521,VALID,0,VALID,24.3478,VALID,102,VALID,0,
2008-10-27, 00:57:05,VALID,1004.12,VALID,0,VALID,93.6903,VALID,0,VALID,24.3283,VALID,102,VALID,0,
2008-10-27, 00:58:05,VALID,1004.04,VALID,0,VALID,93.675,VALID,0,VALID,24.3088,VALID,102,VALID,0,
2008-10-27, 00:59:05,VALID,1004.08,VALID,0,VALID,93.7666,VALID,0,VALID,24.2699,VALID,102,VALID,0,
2008-10-27, 01:00:05,VALID,1004.07,VALID,0,VALID,93.8352,VALID,0,VALID,24.2486,VALID,102,VALID,0,
2008-10-27, 01:01:05,VALID,1004.05,VALID,0,VALID,93.942,VALID,0,VALID,24.2273,VALID,102,VALID,0,
2008-10-27, 01:02:05,VALID,1004.06,VALID,0,VALID,94.0641,VALID,0,VALID,24.2681,VALID,102,VALID,0,
2008-10-27, 01:03:05,VALID,1004,VALID,0,VALID,94.1709,VALID,0,VALID,24.2699,VALID,102,VALID,0,
2008-10-27, 01:04:05,VALID,1004.03,VALID,0,VALID,94.2548,VALID,0,VALID,24.2681,VALID,102,VALID,0,
2008-10-27, 01:05:05,VALID,1004.03,VALID,0,VALID,94.2853,VALID,0,VALID,24.2699,VALID,102,VALID,0,
2008-10-27, 01:06:05,VALID,1003.98,VALID,0,VALID,94.3082,VALID,0,VALID,24.2291,VALID,102,VALID,0,
2008-10-27, 01:07:05,VALID,1004,VALID,0,VALID,94.354,VALID,0,VALID,24.2504,VALID,102,VALID,0,
2008-10-27, 01:08:05,VALID,1003.98,VALID,0,VALID,94.415,VALID,0,VALID,24.2097,VALID,102,VALID,0,
2008-10-27, 01:09:05,VALID,1003.97,VALID,0,VALID,94.4989,VALID,0,VALID,24.2097,VALID,102,VALID,0,
2008-10-27, 01:10:05,VALID,1003.95,VALID,0,VALID,94.5371,VALID,0,VALID,24.231,VALID,102,VALID,0,
2008-10-27, 01:11:05,VALID,1003.97,VALID,0,VALID,94.5447,VALID,0,VALID,24.231,VALID,102,VALID,0,
2008-10-27, 01:12:05,VALID,1003.92,VALID,0,VALID,94.5905,VALID,0,VALID,24.1902,VALID,102,VALID,0,
2008-10-27, 01:13:05,VALID,1003.93,VALID,0,VALID,94.6134,VALID,0,VALID,24.2115,VALID,102,VALID,0,
2008-10-27, 01:14:05,VALID,1003.93,VALID,0,VALID,94.6134,VALID,0,VALID,24.2133,VALID,102,VALID,0.3625,
2008-10-27, 01:15:05,VALID,1003.93,VALID,0,VALID,94.6591,VALID,0,VALID,24.2115,VALID,102,VALID,0.282422,
2008-10-27, 01:16:05,VALID,1003.91,VALID,0,VALID,94.7049,VALID,0,VALID,24.192,VALID,102,VALID,0.470313,
2008-10-27, 01:17:05,VALID,1003.87,VALID,0,VALID,94.7278,VALID,0,VALID,24.192,VALID,112,VALID,0.573438,
2008-10-27, 01:18:05,VALID,1003.88,VALID,0,VALID,94.7812,VALID,0,VALID,24.2115,VALID,116,VALID,0.399609,
2008-10-27, 01:19:05,VALID,1003.9,VALID,0,VALID,94.7888,VALID,0,VALID,24.2115,VALID,105,VALID,0.585547,
2008-10-27, 01:20:05,VALID,1003.84,VALID,0,VALID,94.7812,VALID,0,VALID,24.231,VALID,99,VALID,0.972266,
2008-10-27, 01:21:05,VALID,1003.84,VALID,0,VALID,94.7965,VALID,0,VALID,24.2504,VALID,96,VALID,0.632422,
2008-10-27, 01:22:05,VALID,1003.84,VALID,0,VALID,94.7431,VALID,0,VALID,24.2699,VALID,97,VALID,0.564062,
2008-10-27, 01:23:05,VALID,1003.81,VALID,0,VALID,94.7354,VALID,0,VALID,24.2894,VALID,98,VALID,0.791406,
2008-10-27, 01:24:05,VALID,1003.79,VALID,0,VALID,94.6897,VALID,0,VALID,24.2699,VALID,84,VALID,0.811328,
2008-10-27, 01:25:05,VALID,1003.78,VALID,0,VALID,94.7049,VALID,0,VALID,24.3088,VALID,81,VALID,0.503906,
2008-10-27, 01:26:05,VALID,1003.8,VALID,0.5,VALID,94.6515,VALID,0,VALID,24.2894,VALID,92,VALID,0.469531,
2008-10-27, 01:27:05,VALID,1003.77,VALID,0,VALID,94.6134,VALID,0,VALID,24.2894,VALID,105,VALID,0.527344,
2008-10-27, 01:28:05,VALID,1003.75,VALID,0,VALID,94.5905,VALID,0,VALID,24.3088,VALID,109,VALID,0.778516,
2008-10-27, 01:29:05,VALID,1003.76,VALID,0,VALID,94.5905,VALID,0,VALID,24.3283,VALID,91,VALID,0.795313,
2008-10-27, 01:30:05,VALID,1003.76,VALID,0,VALID,94.5752,VALID,0,VALID,24.3088,VALID,108,VALID,0.855078,
2008-10-27, 01:31:05,VALID,1003.76,VALID,0,VALID,94.5523,VALID,0,VALID,24.3283,VALID,126,VALID,0.770312,
2008-10-27, 01:32:05,VALID,1003.76,VALID,0,VALID,94.5829,VALID,0,VALID,24.3283,VALID,124,VALID,0.74375,
2008-10-27, 01:33:05,VALID,1003.71,VALID,0,VALID,94.5676,VALID,0,VALID,24.2875,VALID,123,VALID,0.808984,
2008-10-27, 01:34:05,VALID,1003.72,VALID,0,VALID,94.5447,VALID,0,VALID,24.2894,VALID,122,VALID,0.8625,
2008-10-27, 01:35:05,VALID,1003.73,VALID,0,VALID,94.56,VALID,0,VALID,24.2894,VALID,121,VALID,0.822266,
2008-10-27, 01:36:05,VALID,1003.74,VALID,0,VALID,94.5981,VALID,0,VALID,24.2699,VALID,117,VALID,0.798047,
2008-10-27, 01:37:05,VALID,1003.75,VALID,0,VALID,94.6363,VALID,0,VALID,24.2486,VALID,117,VALID,0.613672,
2008-10-27, 01:38:05,VALID,1003.75,VALID,0,VALID,94.5981,VALID,0,VALID,24.2504,VALID,114,VALID,1.01992,
2008-10-27, 01:39:05,VALID,1003.75,VALID,0,VALID,94.6286,VALID,0.100563,VALID,24.2273,VALID,109,VALID,0.732031,
2008-10-27, 01:40:05,VALID,1003.73,VALID,0,VALID,94.6057,VALID,0.100563,VALID,24.2291,VALID,107,VALID,0.829297,
2008-10-27, 01:41:05,VALID,1003.73,VALID,0,VALID,94.6363,VALID,0.100563,VALID,24.2486,VALID,104,VALID,0.443359,
2008-10-27, 01:42:05,VALID,1003.74,VALID,0,VALID,94.6134,VALID,0.100563,VALID,24.2486,VALID,108,VALID,0.792188,
2008-10-27, 01:43:05,VALID,1003.75,VALID,0,VALID,94.6439,VALID,0,VALID,24.2486,VALID,112,VALID,0.832812,
2008-10-27, 01:44:05,VALID,1003.74,VALID,0,VALID,94.6591,VALID,0,VALID,24.2486,VALID,100,VALID,0.742188,
2008-10-27, 01:45:05,VALID,1003.74,VALID,0,VALID,94.682,VALID,0.100563,VALID,24.2486,VALID,97,VALID,0.516016,
2008-10-27, 01:46:05,VALID,1003.73,VALID,0,VALID,94.6744,VALID,0,VALID,24.2486,VALID,98,VALID,0.501172,
2008-10-27, 01:47:05,VALID,1003.73,VALID,0,VALID,94.6668,VALID,0.100563,VALID,24.2486,VALID,100,VALID,1.0582,
2008-10-27, 01:48:05,VALID,1003.72,VALID,0,VALID,94.6286,VALID,0,VALID,24.2486,VALID,95,VALID,0.560156,
2008-10-27, 01:49:05,VALID,1003.69,VALID,0,VALID,94.6439,VALID,0,VALID,24.2486,VALID,123,VALID,0.713672,
2008-10-27, 01:50:05,VALID,1003.69,VALID,0,VALID,94.6744,VALID,0,VALID,24.2875,VALID,95,VALID,0.463281,
2008-10-27, 01:51:05,VALID,1003.66,VALID,0,VALID,94.6515,VALID,0,VALID,24.2468,VALID,96,VALID,0.626172,
2008-10-27, 01:52:05,VALID,1003.63,VALID,0,VALID,94.5752,VALID,0.100563,VALID,24.2486,VALID,95,VALID,0.514844,
2008-10-27, 01:53:05,VALID,1003.66,VALID,0,VALID,94.5752,VALID,0.100563,VALID,24.2468,VALID,74,VALID,0.503125,
2008-10-27, 01:54:05,VALID,1003.63,VALID,0,VALID,94.5371,VALID,0,VALID,24.2486,VALID,58,VALID,0.545703,
2008-10-27, 01:55:05,VALID,1003.62,VALID,0,VALID,94.5066,VALID,0,VALID,24.2912,VALID,68,VALID,0.828516,
2008-10-27, 01:56:05,VALID,1003.64,VALID,0,VALID,94.4684,VALID,0,VALID,24.2699,VALID,108,VALID,0.916797,
2008-10-27, 01:57:05,VALID,1003.64,VALID,0,VALID,94.4608,VALID,0,VALID,24.2894,VALID,67,VALID,0.512109,
2008-10-27, 01:58:05,VALID,1003.62,VALID,0,VALID,94.4379,VALID,0,VALID,24.2894,VALID,64,VALID,0.740625,
2008-10-27, 01:59:05,VALID,1003.63,VALID,0,VALID,94.4379,VALID,0,VALID,24.2681,VALID,63,VALID,0.529688,
2008-10-27, 02:00:05,VALID,1003.6,VALID,0,VALID,94.3845,VALID,0,VALID,24.2894,VALID,72,VALID,0.371875,
2008-10-27, 02:01:05,VALID,1003.59,VALID,0,VALID,94.3692,VALID,0,VALID,24.2894,VALID,84,VALID,0.40625,
2008-10-27, 02:02:05,VALID,1003.58,VALID,0,VALID,94.3616,VALID,0,VALID,24.2699,VALID,93,VALID,0.723828,
2008-10-27, 02:03:05,VALID,1003.56,VALID,0,VALID,94.3769,VALID,0,VALID,24.2894,VALID,58,VALID,0.0214844,
2008-10-27, 02:04:05,VALID,1003.52,VALID,0,VALID,94.3616,VALID,0,VALID,24.2894,VALID,58,VALID,0.170312,
2008-10-27, 02:05:05,VALID,1003.51,VALID,0,VALID,94.354,VALID,0,VALID,24.2699,VALID,58,VALID,0.349609,
2008-10-27, 02:06:05,VALID,1003.51,VALID,0,VALID,94.354,VALID,0,VALID,24.2699,VALID,79,VALID,0.829297,
2008-10-27, 02:07:05,VALID,1003.47,VALID,0,VALID,94.354,VALID,0,VALID,24.2504,VALID,81,VALID,0.197656,
2008-10-27, 02:08:05,VALID,1003.47,VALID,0.5,VALID,94.3769,VALID,0,VALID,24.2504,VALID,55,VALID,0.451953,
2008-10-27, 02:09:05,VALID,1003.48,VALID,0,VALID,94.3769,VALID,0,VALID,24.2486,VALID,76,VALID,0.45625,
2008-10-27, 02:10:05,VALID,1003.46,VALID,0,VALID,94.3616,VALID,0,VALID,24.2486,VALID,69,VALID,0.521875,
2008-10-27, 02:11:05,VALID,1003.44,VALID,0,VALID,94.3845,VALID,0,VALID,24.2486,VALID,67,VALID,0.365234,
2008-10-27, 02:12:05,VALID,1003.45,VALID,0,VALID,94.3845,VALID,0.100563,VALID,24.2486,VALID,73,VALID,0.364844,
2008-10-27, 02:13:05,VALID,1003.45,VALID,0,VALID,94.415,VALID,0,VALID,24.2486,VALID,73,VALID,0.447266,
2008-10-27, 02:14:05,VALID,1003.44,VALID,0,VALID,94.415,VALID,0,VALID,24.2291,VALID,73,VALID,0.128906,
2008-10-27, 02:15:05,VALID,1003.42,VALID,0,VALID,94.4303,VALID,0,VALID,24.2291,VALID,60,VALID,0.198047,
2008-10-27, 02:16:05,VALID,1003.41,VALID,0,VALID,94.4455,VALID,0,VALID,24.2291,VALID,59,VALID,0.146484,
2008-10-27, 02:17:05,VALID,1003.41,VALID,0,VALID,94.4837,VALID,0,VALID,24.2097,VALID,60,VALID,0.179297,
2008-10-27, 02:18:04,VALID,1003.38,VALID,0,VALID,94.4684,VALID,0.100563,VALID,24.2097,VALID,60,VALID,0.267188,
2008-10-27, 02:19:04,VALID,1003.39,VALID,0,VALID,94.4913,VALID,0.100563,VALID,24.2097,VALID,60,VALID,0.282031,
2008-10-27, 02:20:04,VALID,1003.38,VALID,0,VALID,94.5218,VALID,0,VALID,24.1902,VALID,60,VALID,0,
2008-10-27, 02:21:04,VALID,1003.38,VALID,0,VALID,94.5523,VALID,0,VALID,24.1902,VALID,61,VALID,0.226953,
2008-10-27, 02:22:04,VALID,1003.37,VALID,0,VALID,94.5905,VALID,0,VALID,24.1902,VALID,61,VALID,0.148047,
2008-10-27, 02:23:04,VALID,1003.38,VALID,0,VALID,94.5752,VALID,0.100563,VALID,24.1902,VALID,62,VALID,0.360156,
2008-10-27, 02:24:04,VALID,1003.36,VALID,0,VALID,94.621,VALID,0.100563,VALID,24.1902,VALID,62,VALID,0.210156,
2008-10-27, 02:25:04,VALID,1003.37,VALID,0,VALID,94.6363,VALID,0,VALID,24.1902,VALID,71,VALID,0.490625,
2008-10-27, 02:26:04,VALID,1003.33,VALID,0,VALID,94.6134,VALID,0.100563,VALID,24.1707,VALID,82,VALID,0.406641,
2008-10-27, 02:27:04,VALID,1003.36,VALID,0,VALID,94.6439,VALID,0,VALID,24.1494,VALID,83,VALID,0.254297,
2008-10-27, 02:28:04,VALID,1003.34,VALID,0,VALID,94.6591,VALID,0.100563,VALID,24.1902,VALID,78,VALID,0.344141,
2008-10-27, 02:29:04,VALID,1003.34,VALID,0,VALID,94.6591,VALID,0.100563,VALID,24.1707,VALID,71,VALID,0.353125,
2008-10-27, 02:30:04,VALID,1003.33,VALID,0.5,VALID,94.682,VALID,0,VALID,24.1494,VALID,84,VALID,0.436719,
2008-10-27, 02:31:04,VALID,1003.3,VALID,0,VALID,94.6973,VALID,0.100563,VALID,24.1707,VALID,70,VALID,0.691797,
2008-10-27, 02:32:04,VALID,1003.3,VALID,0,VALID,94.7125,VALID,0.100563,VALID,24.1707,VALID,88,VALID,0.677344,
2008-10-27, 02:33:04,VALID,1003.29,VALID,0,VALID,94.7354,VALID,0,VALID,24.1707,VALID,70,VALID,0.485156,
2008-10-27, 02:34:04,VALID,1003.26,VALID,0,VALID,94.7736,VALID,0.100563,VALID,24.1902,VALID,76,VALID,0.641797,
2008-10-27, 02:35:04,VALID,1003.28,VALID,0,VALID,94.7507,VALID,0,VALID,24.1902,VALID,63,VALID,0.519141,
2008-10-27, 02:36:04,VALID,1003.27,VALID,0,VALID,94.7507,VALID,0.100563,VALID,24.2097,VALID,83,VALID,0.748828,
2008-10-27, 02:37:04,VALID,1003.28,VALID,0,VALID,94.7736,VALID,0.100563,VALID,24.2097,VALID,89,VALID,0.578906,
2008-10-27, 02:38:04,VALID,1003.28,VALID,0,VALID,94.766,VALID,0,VALID,24.2097,VALID,68,VALID,0.701172,
2008-10-27, 02:39:04,VALID,1003.29,VALID,0,VALID,94.7736,VALID,0,VALID,24.2097,VALID,100,VALID,1.17344,
2008-10-27, 02:40:04,VALID,1003.27,VALID,0,VALID,94.7965,VALID,0.100563,VALID,24.231,VALID,101,VALID,0.691797,
2008-10-27, 02:41:04,VALID,1003.26,VALID,0,VALID,94.7736,VALID,0,VALID,24.2097,VALID,70,VALID,0.564062,
2008-10-27, 02:42:04,VALID,1003.27,VALID,0,VALID,94.7507,VALID,0,VALID,24.2097,VALID,100,VALID,0.682031,
2008-10-27, 02:43:04,VALID,1003.26,VALID,0.5,VALID,94.766,VALID,0,VALID,24.2291,VALID,103,VALID,0.498047,
2008-10-27, 02:44:04,VALID,1003.26,VALID,0,VALID,94.7431,VALID,0,VALID,24.2097,VALID,71,VALID,0.684766,
2008-10-27, 02:45:04,VALID,1003.23,VALID,0,VALID,94.7812,VALID,0,VALID,24.2097,VALID,88,VALID,0.349609,
2008-10-27, 02:46:04,VALID,1003.26,VALID,0,VALID,94.7736,VALID,0.100563,VALID,24.2097,VALID,79,VALID,1.20703,
2008-10-27, 02:47:04,VALID,1003.24,VALID,0,VALID,94.6744,VALID,0,VALID,24.1902,VALID,88,VALID,1.22891,
2008-10-27, 02:48:04,VALID,1003.25,VALID,0,VALID,94.6744,VALID,0.100563,VALID,24.1902,VALID,87,VALID,1.00859,
2008-10-27, 02:49:04,VALID,1003.24,VALID,0,VALID,94.6668,VALID,0.100563,VALID,24.1707,VALID,69,VALID,0.425391,
2008-10-27, 02:50:04,VALID,1003.26,VALID,0,VALID,94.6744,VALID,0.100563,VALID,24.1707,VALID,92,VALID,0.471875,
2008-10-27, 02:51:04,VALID,1003.24,VALID,0,VALID,94.682,VALID,0,VALID,24.1707,VALID,84,VALID,0.849609,
2008-10-27, 02:52:04,VALID,1003.22,VALID,0,VALID,94.6591,VALID,0,VALID,24.1513,VALID,73,VALID,1.03203,
2008-10-27, 02:53:04,VALID,1003.2,VALID,0,VALID,94.6286,VALID,0,VALID,24.1513,VALID,106,VALID,0.753906,
2008-10-27, 02:54:04,VALID,1003.19,VALID,0,VALID,94.6363,VALID,0,VALID,24.1123,VALID,65,VALID,0.682813,
2008-10-27, 02:55:04,VALID,1003.2,VALID,0,VALID,94.6668,VALID,0,VALID,24.1336,VALID,86,VALID,0.453906,
2008-10-27, 02:56:04,VALID,1003.17,VALID,0,VALID,94.6363,VALID,0,VALID,24.1336,VALID,94,VALID,0.738672,
2008-10-27, 02:57:04,VALID,1003.19,VALID,0,VALID,94.6591,VALID,0,VALID,24.1142,VALID,78,VALID,0.632813,
2008-10-27, 02:58:04,VALID,1003.19,VALID,0,VALID,94.6591,VALID,0,VALID,24.0947,VALID,85,VALID,0.7375,
2008-10-27, 02:59:04,VALID,1003.18,VALID,0,VALID,94.6744,VALID,0,VALID,24.0752,VALID,103,VALID,0.902344,
2008-10-27, 03:00:04,VALID,1003.17,VALID,0,VALID,94.6897,VALID,0,VALID,24.0947,VALID,114,VALID,1.25469,
2008-10-27, 03:01:04,VALID,1003.18,VALID,0,VALID,94.7125,VALID,0,VALID,24.0752,VALID,103,VALID,1.05625,
2008-10-27, 03:02:04,VALID,1003.18,VALID,0,VALID,94.7202,VALID,0,VALID,24.0752,VALID,91,VALID,0.8875,
2008-10-27, 03:03:04,VALID,1003.2,VALID,0,VALID,94.7049,VALID,0,VALID,24.0752,VALID,94,VALID,0.594531,
2008-10-27, 03:04:04,VALID,1003.15,VALID,0,VALID,94.7202,VALID,0,VALID,24.0539,VALID,102,VALID,0.949219,
2008-10-27, 03:05:04,VALID,1003.19,VALID,0,VALID,94.6897,VALID,0,VALID,24.0752,VALID,112,VALID,0.573047,
2008-10-27, 03:06:04,VALID,1003.16,VALID,0,VALID,94.6668,VALID,0,VALID,24.0752,VALID,101,VALID,0.844531,
2008-10-27, 03:07:04,VALID,1003.16,VALID,0,VALID,94.6744,VALID,0,VALID,24.0752,VALID,104,VALID,0.842188,
2008-10-27, 03:08:04,VALID,1003.15,VALID,0,VALID,94.6668,VALID,0,VALID,24.0557,VALID,106,VALID,0.632031,
2008-10-27, 03:09:04,VALID,1003.17,VALID,0,VALID,94.6515,VALID,0.100563,VALID,24.0539,VALID,101,VALID,0.523438,
2008-10-27, 03:10:04,VALID,1003.14,VALID,0,VALID,94.6515,VALID,0,VALID,24.0734,VALID,97,VALID,0.689453,
2008-10-27, 03:11:04,VALID,1003.1,VALID,0,VALID,94.6515,VALID,0,VALID,24.0539,VALID,95,VALID,0.666797,
2008-10-27, 03:12:04,VALID,1003.1,VALID,0,VALID,94.6439,VALID,0,VALID,24.0539,VALID,95,VALID,0.350781,
2008-10-27, 03:13:04,VALID,1003.08,VALID,0,VALID,94.6286,VALID,0,VALID,24.0345,VALID,95,VALID,0.484766,
2008-10-27, 03:14:04,VALID,1003.09,VALID,0,VALID,94.6439,VALID,0.100563,VALID,24.0539,VALID,95,VALID,0.160938,
2008-10-27, 03:15:04,VALID,1003.08,VALID,0,VALID,94.6897,VALID,0,VALID,24.0345,VALID,95,VALID,0.227344,
2008-10-27, 03:16:04,VALID,1003.09,VALID,0,VALID,94.7049,VALID,0,VALID,24.0345,VALID,95,VALID,0.279297,
2008-10-27, 03:17:04,VALID,1003.08,VALID,0,VALID,94.682,VALID,0,VALID,24.0345,VALID,95,VALID,0.533984,
2008-10-27, 03:18:04,VALID,1003.07,VALID,0,VALID,94.6973,VALID,0,VALID,24.0345,VALID,95,VALID,0.498047,
2008-10-27, 03:19:04,VALID,1003.06,VALID,0,VALID,94.6744,VALID,0,VALID,24.015,VALID,95,VALID,0.657031,
2008-10-27, 03:20:04,VALID,1003.07,VALID,0,VALID,94.6897,VALID,0,VALID,23.9955,VALID,95,VALID,0.535547,
2008-10-27, 03:21:04,VALID,1003.06,VALID,0,VALID,94.6973,VALID,0,VALID,23.9742,VALID,93,VALID,0.487109,
2008-10-27, 03:22:04,VALID,1003.08,VALID,0.5,VALID,94.6973,VALID,0,VALID,23.9955,VALID,93,VALID,0.142188,
2008-10-27, 03:23:04,VALID,1003.07,VALID,0,VALID,94.7125,VALID,0.100563,VALID,23.9548,VALID,93,VALID,0,
2008-10-27, 03:24:04,VALID,1003.06,VALID,0,VALID,94.7202,VALID,0,VALID,23.9973,VALID,90,VALID,0.375781,
2008-10-27, 03:25:04,VALID,1003.07,VALID,0,VALID,94.7431,VALID,0,VALID,23.9584,VALID,87,VALID,0.290234,
2008-10-27, 03:26:04,VALID,1003.04,VALID,0,VALID,94.7278,VALID,0,VALID,23.9584,VALID,82,VALID,0.364453,
2008-10-27, 03:27:04,VALID,1003.03,VALID,0,VALID,94.7583,VALID,0,VALID,23.9584,VALID,79,VALID,0.430859,
2008-10-27, 03:28:04,VALID,1003.04,VALID,0,VALID,94.766,VALID,0,VALID,23.8982,VALID,79,VALID,0.447656,
2008-10-27, 03:29:04,VALID,1003.05,VALID,0,VALID,94.8041,VALID,0,VALID,23.9195,VALID,76,VALID,0.692578,
2008-10-27, 03:30:04,VALID,1003.05,VALID,0,VALID,94.8194,VALID,0,VALID,23.8982,VALID,80,VALID,0.605859,
2008-10-27, 03:31:04,VALID,1003.03,VALID,0,VALID,94.8194,VALID,0,VALID,23.8787,VALID,81,VALID,0.478906,
2008-10-27, 03:32:04,VALID,1003.03,VALID,0,VALID,94.8651,VALID,0,VALID,23.9195,VALID,81,VALID,0.313281,
2008-10-27, 03:33:04,VALID,1003.02,VALID,0,VALID,95.094,VALID,0,VALID,23.9,VALID,82,VALID,0.439844,
2008-10-27, 03:34:04,VALID,1003.03,VALID,0,VALID,95.1016,VALID,0,VALID,23.9,VALID,84,VALID,0.710938,
2008-10-27, 03:35:04,VALID,1003.05,VALID,0,VALID,95.1093,VALID,0,VALID,23.8787,VALID,84,VALID,0.519922,
2008-10-27, 03:36:04,VALID,1003.03,VALID,0,VALID,95.1245,VALID,0,VALID,23.9,VALID,83,VALID,0.533984,
2008-10-27, 03:37:04,VALID,1003.04,VALID,0,VALID,95.1245,VALID,0,VALID,23.9,VALID,78,VALID,0.281641,
2008-10-27, 03:38:04,VALID,1003.06,VALID,0,VALID,95.1398,VALID,0,VALID,23.8805,VALID,78,VALID,0.255078,
2008-10-27, 03:39:04,VALID,1003.04,VALID,0,VALID,95.1474,VALID,0,VALID,23.8805,VALID,78,VALID,0.200781,
2008-10-27, 03:40:04,VALID,1003.06,VALID,0,VALID,95.1627,VALID,0,VALID,23.8787,VALID,78,VALID,0.304688,
2008-10-27, 03:41:04,VALID,1003.07,VALID,0,VALID,95.1627,VALID,0,VALID,23.9,VALID,81,VALID,0.351953,
2008-10-27, 03:42:04,VALID,1003.04,VALID,0,VALID,95.1627,VALID,0,VALID,23.8805,VALID,91,VALID,0.341016,
2008-10-27, 03:43:04,VALID,1003.07,VALID,0,VALID,95.1932,VALID,0,VALID,23.8593,VALID,92,VALID,0.584375,
2008-10-27, 03:44:04,VALID,1003.06,VALID,0,VALID,95.2161,VALID,0,VALID,23.8787,VALID,93,VALID,0.472656,
2008-10-27, 03:45:04,VALID,1003.06,VALID,0,VALID,95.2161,VALID,0,VALID,23.9195,VALID,93,VALID,0.173047,